FW1847 Weather Reports


Display with metric or nautical units.
time (UTC)temp
F
wind
direction
speed
MPH
gust
MPH
rain 1hr
in
rain 24hr
in
rain mn
in
humidity
%
barometer
mb
20260505223222 52 28 3.0 7.0 0.00 0.18 0.00 76 1008.7
20260505222719 52 20 3.0 9.0 0.00 0.18 0.00 76 1008.7
20260505222218 52 57 4.0 9.0 0.00 0.18 0.00 76 1008.8
20260505221720 52 20 3.0 8.0 0.00 0.18 0.00 77 1008.8
20260505221220 52 20 3.0 8.0 0.00 0.18 0.00 77 1008.8
20260505220718 52 5 2.0 8.0 0.00 0.18 0.00 77 1008.8
20260505220219 52 13 2.0 8.0 0.00 0.18 0.00 78 1008.9
20260505215718 52 353 3.0 8.0 0.00 0.18 0.18 78 1009.0
20260505214717 52 2 3.0 7.0 0.00 0.18 0.18 79 1009.1
20260505214218 52 28 3.0 7.0 0.00 0.18 0.18 79 1009.0
20260505212700 53 22 2.0 4.0 0.00 0.18 0.18 81 1009.1
20260505211142 53 10 3.0 6.0 0.00 0.18 0.18 81 1009.2
20260505210636 53 13 3.0 7.0 0.00 0.18 0.18 81 1009.2
20260505210130 53 356 3.0 7.0 0.00 0.18 0.18 81 1009.2
20260505205623 53 359 2.0 5.0 0.00 0.18 0.18 82 1009.2
20260505205118 53 1 2.0 4.0 0.00 0.18 0.18 82 1009.2
20260505204613 53 20 2.0 6.0 0.00 0.18 0.18 82 1009.2
20260505204107 53 11 2.0 6.0 0.00 0.18 0.18 82 1009.1
20260505203056 53 14 2.0 7.0 0.00 0.18 0.18 82 1009.2
20260505202551 53 343 3.0 8.0 0.00 0.18 0.18 82 1009.2
20260505201030 53 18 3.0 7.0 0.00 0.18 0.18 82 1009.1
20260505200525 53 8 3.0 8.0 0.00 0.18 0.18 82 1009.1
20260505200018 53 17 3.0 8.0 0.00 0.18 0.18 82 1009.1
20260505195511 53 24 3.0 8.0 0.00 0.18 0.18 82 1009.1
20260505195006 53 24 3.0 8.0 0.00 0.18 0.18 82 1009.1
20260505194500 53 5 3.0 8.0 0.00 0.18 0.18 82 1009.1
20260505193449 53 346 1.0 4.0 0.00 0.18 0.18 82 1009.1
20260505192943 53 1 1.0 4.0 0.00 0.18 0.18 82 1009.1
20260505192436 53 344 2.0 7.0 0.00 0.18 0.18 82 1009.0
20260505191930 53 343 3.0 7.0 0.00 0.18 0.18 82 1009.0
20260505190927 53 5 4.0 8.0 0.00 0.18 0.18 81 1008.9
20260505190411 53 349 4.0 8.0 0.00 0.18 0.18 81 1008.8
20260505185406 53 3 4.0 9.0 0.00 0.18 0.18 81 1008.8
20260505184908 53 3 4.0 8.0 0.00 0.18 0.18 81 1008.9
20260505184406 53 342 4.0 9.0 0.00 0.18 0.18 81 1008.8
20260505183906 53 334 4.0 10.0 0.00 0.18 0.18 81 1008.8
20260505183405 53 4 5.0 12.0 0.00 0.18 0.18 81 1008.8
20260505182905 53 346 4.0 12.0 0.00 0.18 0.18 81 1008.9
20260505182405 53 359 4.0 11.0 0.00 0.18 0.18 81 1008.8
20260505181902 53 11 4.0 11.0 0.00 0.18 0.18 81 1008.8
20260505181403 53 314 4.0 11.0 0.00 0.18 0.18 81 1008.8
20260505180400 53 334 4.0 11.0 0.00 0.18 0.18 81 1008.8
20260505175900 53 7 5.0 10.0 0.00 0.18 0.18 80 1008.9
20260505175358 53 353 5.0 12.0 0.00 0.18 0.18 80 1008.9
20260505174859 53 1 5.0 12.0 0.00 0.18 0.18 80 1008.9
20260505174357 53 344 4.0 10.0 0.00 0.18 0.18 80 1009.0
20260505173856 53 11 3.0 10.0 0.00 0.18 0.18 80 1009.0
20260505173358 53 358 3.0 10.0 0.00 0.18 0.18 80 1009.0
20260505172851 53 3 4.0 10.0 0.00 0.18 0.18 80 1009.1
20260505172347 53 357 3.0 10.0 0.00 0.18 0.18 80 1009.1
20260505171849 53 345 3.0 10.0 0.00 0.18 0.18 80 1009.2
20260505171347 53 354 3.0 10.0 0.00 0.18 0.18 80 1009.2
20260505170847 53 5 3.0 9.0 0.00 0.18 0.18 80 1009.1
20260505170346 53 322 4.0 10.0 0.00 0.18 0.18 80 1009.1
20260505165846 53 345 4.0 10.0 0.00 0.18 0.18 79 1009.2
20260505165347 53 24 4.0 10.0 0.00 0.18 0.18 79 1009.2
20260505164848 53 339 4.0 13.0 0.00 0.18 0.18 79 1009.1
20260505164345 53 355 6.0 13.0 0.00 0.18 0.18 79 1009.3
20260505163847 53 28 6.0 12.0 0.00 0.18 0.18 79 1009.2
20260505163342 53 351 5.0 11.0 0.00 0.18 0.18 79 1009.2
20260505162841 54 329 5.0 12.0 0.00 0.18 0.18 78 1009.2
20260505162343 54 339 6.0 12.0 0.00 0.18 0.18 77 1009.2
20260505161842 54 9 7.0 15.0 0.00 0.18 0.18 77 1009.3
20260505160344 54 21 4.0 9.0 0.00 0.18 0.18 75 1009.2
20260505153342 55 334 5.0 10.0 0.00 0.18 0.18 74 1009.5
20260505152842 55 350 5.0 10.0 0.00 0.18 0.18 73 1009.5
20260505152342 55 354 4.0 10.0 0.00 0.18 0.18 73 1009.6
20260505151839 55 10 4.0 11.0 0.00 0.18 0.18 73 1009.7
20260505150838 55 10 4.0 11.0 0.00 0.18 0.18 74 1009.7
20260505150338 55 10 3.0 7.0 0.00 0.18 0.18 74 1009.7
20260505140247 55 37 3.0 8.0 0.00 0.18 0.18 73 1010.0
20260505130143 54 54 2.0 5.0 0.00 0.18 0.18 74 1010.3
20260505124112 54 65 2.0 7.0 0.00 0.18 0.18 75 1010.5
20260505123605 53 35 2.0 7.0 0.00 0.18 0.18 75 1010.6
20260505122555 53 94 2.0 7.0 0.00 0.18 0.18 75 1010.6
20260505122055 53 94 2.0 7.0 0.00 0.18 0.18 75 1010.6
20260505121554 53 49 2.0 7.0 0.00 0.18 0.18 75 1010.6
20260505121054 53 48 3.0 8.0 0.00 0.18 0.18 74 1010.6
20260505120553 53 65 3.0 8.0 0.00 0.18 0.18 74 1010.6
20260505120051 53 50 2.0 7.0 0.00 0.18 0.18 75 1010.6
20260505115552 53 77 3.0 10.0 0.00 0.18 0.18 75 1010.6
20260505115053 52 66 4.0 10.0 0.00 0.18 0.18 75 1010.7
20260505114552 52 32 4.0 9.0 0.00 0.18 0.18 75 1010.7
20260505114053 52 49 4.0 9.0 0.00 0.18 0.18 75 1010.8
20260505113549 52 45 4.0 9.0 0.00 0.18 0.18 75 1010.8
20260505113059 51 47 3.0 9.0 0.00 0.18 0.18 76 1010.7
20260505112550 51 52 4.0 11.0 0.00 0.18 0.18 76 1010.7
20260505112050 51 28 5.0 11.0 0.00 0.18 0.18 76 1010.8
20260505111551 51 32 4.0 8.0 0.00 0.18 0.18 76 1010.9
20260505102045 50 8 2.0 6.0 0.00 0.18 0.18 77 1011.2
20260505101048 50 41 4.0 8.0 0.00 0.18 0.18 78 1011.3
20260505100546 50 44 4.0 9.0 0.00 0.18 0.18 78 1011.2
20260505100047 50 46 3.0 9.0 0.00 0.18 0.18 78 1011.3
20260505095546 50 37 3.0 8.0 0.00 0.18 0.18 80 1011.3
20260505095046 50 35 4.0 9.0 0.00 0.18 0.18 79 1011.3
20260505094046 49 2 5.0 10.0 0.00 0.18 0.18 80 1011.3
20260505093546 49 33 3.0 8.0 0.00 0.18 0.18 81 1011.3
20260505092545 49 42 4.0 9.0 0.00 0.18 0.18 81 1011.4
20260505091545 49 36 3.0 8.0 0.00 0.18 0.18 82 1011.5
20260505091047 49 37 4.0 9.0 0.00 0.18 0.18 82 1011.5
20260505090545 49 45 5.0 9.0 0.00 0.18 0.18 82 1011.5
20260505090053 48 15 4.0 10.0 0.00 0.18 0.18 83 1011.4
20260505085544 48 35 4.0 10.0 0.00 0.18 0.18 84 1011.4
20260505085044 48 18 3.0 9.0 0.00 0.18 0.18 84 1011.4
20260505084538 48 15 4.0 8.0 0.00 0.18 0.18 84 1011.5
20260505084040 48 43 3.0 9.0 0.00 0.18 0.18 84 1011.5
20260505083539 48 343 3.0 9.0 0.00 0.18 0.18 85 1011.5
20260505083040 48 39 4.0 8.0 0.00 0.18 0.18 84 1011.6
20260505082538 47 37 3.0 8.0 0.00 0.18 0.18 84 1011.5
20260505082034 47 15 3.0 8.0 0.00 0.18 0.18 84 1011.5
20260505081537 47 51 4.0 8.0 0.00 0.18 0.18 84 1011.5
20260505081030 47 21 4.0 11.0 0.00 0.18 0.18 84 1011.5
20260505080524 47 35 5.0 11.0 0.00 0.18 0.18 84 1011.6
20260505080018 47 30 4.0 10.0 0.00 0.18 0.18 85 1011.6
20260505075512 47 44 5.0 10.0 0.00 0.18 0.18 85 1011.6
20260505075005 47 359 4.0 9.0 0.00 0.18 0.18 85 1011.7
20260505074500 47 35 3.0 9.0 0.00 0.18 0.18 87 1011.7
20260505073954 47 42 3.0 8.0 0.00 0.18 0.18 87 1011.7
20260505073448 47 47 4.0 8.0 0.00 0.18 0.18 87 1011.7
20260505072941 47 28 5.0 10.0 0.00 0.18 0.18 86 1011.6
20260505072435 47 33 6.0 12.0 0.00 0.18 0.18 86 1011.6
20260505071930 47 33 4.0 12.0 0.00 0.18 0.18 85 1011.6
20260505070918 47 351 5.0 9.0 0.00 0.18 0.18 86 1011.5
20260505070412 47 16 3.0 9.0 0.00 0.18 0.18 87 1011.5
20260505065400 47 33 2.0 8.0 0.00 0.18 0.18 88 1011.5
20260505064855 47 33 3.0 9.0 0.00 0.18 0.18 88 1011.5
20260505064349 47 33 4.0 9.0 0.00 0.18 0.18 87 1011.6
20260505063842 47 55 5.0 9.0 0.00 0.18 0.18 88 1011.6
20260505063336 47 14 5.0 9.0 0.00 0.18 0.18 88 1011.5
20260505062324 47 34 4.0 9.0 0.00 0.18 0.18 88 1011.5
20260505061818 47 15 5.0 9.0 0.00 0.18 0.18 88 1011.5
20260505061312 47 357 5.0 10.0 0.00 0.18 0.18 88 1011.5
20260505060300 47 24 4.0 8.0 0.00 0.18 0.18 89 1011.5
20260505055755 47 7 4.0 10.0 0.00 0.18 0.18 88 1011.5
20260505055248 47 31 4.0 10.0 0.00 0.18 0.18 88 1011.5
20260505054742 47 359 3.0 8.0 0.00 0.18 0.18 89 1011.5
20260505054237 47 29 3.0 8.0 0.00 0.18 0.18 89 1011.5
20260505053731 47 30 3.0 8.0 0.00 0.18 0.18 89 1011.5
20260505053224 47 20 3.0 7.0 0.00 0.18 0.18 89 1011.5
20260505052719 47 35 3.0 7.0 0.00 0.18 0.18 89 1011.4
20260505052213 47 10 3.0 8.0 0.00 0.18 0.18 89 1011.4
20260505051707 47 36 3.0 8.0 0.00 0.18 0.18 89 1011.5
20260505050702 47 32 3.0 6.0 0.00 0.18 0.18 89 1011.3
20260505050151 47 3 3.0 7.0 0.00 0.18 0.18 89 1011.4
20260505041629 47 0 3.0 8.0 0.00 0.18 0.18 89 1011.4
20260505041128 47 19 3.0 7.0 0.00 0.18 0.18 89 1011.5
20260505040628 47 29 3.0 7.0 0.00 0.18 0.18 89 1011.5
20260505040129 47 9 2.0 6.0 0.00 0.18 0.18 89 1011.5
20260505035626 47 28 2.0 8.0 0.00 0.18 0.18 89 1011.5
20260505035127 47 354 3.0 9.0 0.00 0.18 0.18 89 1011.5
20260505034627 47 358 3.0 9.0 0.01 0.18 0.18 89 1011.5
20260505034125 47 27 2.0 7.0 0.01 0.18 0.18 89 1011.4
20260505033629 47 10 2.0 9.0 0.01 0.18 0.18 90 1011.4
20260505033127 47 0 3.0 9.0 0.01 0.18 0.18 90 1011.5
20260505032125 47 349 4.0 9.0 0.01 0.18 0.18 90 1011.5
20260505031626 47 359 3.0 9.0 0.02 0.18 0.18 90 1011.5
20260505031125 47 3 3.0 8.0 0.02 0.18 0.18 90 1011.6
20260505030628 47 14 3.0 8.0 0.02 0.18 0.18 90 1011.5
20260505030128 48 18 3.0 8.0 0.02 0.18 0.18 90 1011.5
20260505025628 48 16 3.0 8.0 0.02 0.18 0.18 90 1011.6
20260505025125 48 8 2.0 8.0 0.03 0.18 0.18 90 1011.6
20260505024624 48 355 3.0 7.0 0.02 0.17 0.17 90 1011.7
20260505024125 48 359 4.0 7.0 0.02 0.17 0.17 90 1011.7
20260505023625 48 38 3.0 7.0 0.02 0.17 0.17 90 1011.7
20260505023123 48 28 2.0 7.0 0.02 0.17 0.17 90 1011.8
20260505022621 48 325 3.0 7.0 0.02 0.17 0.17 90 1011.8
20260505022119 48 14 2.0 7.0 0.02 0.17 0.17 90 1011.8
20260505021620 47 20 2.0 4.0 0.02 0.17 0.17 90 1011.9
20260505021119 47 9 2.0 5.0 0.02 0.17 0.17 90 1011.9
20260505020621 47 37 2.0 7.0 0.02 0.17 0.17 90 1011.9
20260505020115 47 35 3.0 7.0 0.02 0.17 0.17 90 1011.9
20260505015103 47 12 3.0 8.0 0.00 0.15 0.16 90 1011.9
20260505014557 47 19 5.0 10.0 0.00 0.15 0.15 90 1012.0
20260505014051 47 30 5.0 10.0 0.00 0.15 0.15 89 1012.0
20260505013545 47 356 4.0 10.0 0.01 0.15 0.15 90 1012.0
20260505013040 48 26 3.0 9.0 0.01 0.15 0.15 90 1011.9
20260505012534 47 58 3.0 9.0 0.01 0.15 0.15 90 1012.0
20260505012026 47 26 3.0 8.0 0.02 0.15 0.15 90 1012.1
20260505011522 47 10 3.0 9.0 0.02 0.15 0.15 90 1012.1
20260505011014 47 14 3.0 9.0 0.02 0.15 0.15 90 1012.1
20260505010508 47 40 4.0 8.0 0.02 0.15 0.15 90 1012.1
20260505010003 47 355 4.0 8.0 0.02 0.15 0.15 90 1012.2
20260505005457 47 14 5.0 11.0 0.03 0.15 0.15 89 1012.2
20260505004951 47 22 4.0 11.0 0.04 0.15 0.15 89 1012.2
20260505004445 47 332 4.0 9.0 0.05 0.15 0.15 89 1012.2
20260505003939 47 25 4.0 9.0 0.06 0.15 0.15 89 1012.2
20260505003433 48 10 4.0 9.0 0.08 0.14 0.14 89 1012.2
20260505002927 48 41 4.0 10.0 0.09 0.14 0.14 89 1012.2
20260505002421 48 26 4.0 10.0 0.09 0.14 0.14 89 1012.3
20260505001915 48 19 4.0 9.0 0.09 0.13 0.13 89 1012.3
20260505001409 48 353 3.0 9.0 0.09 0.13 0.13 89 1012.4
20260505000903 48 323 4.0 11.0 0.09 0.13 0.13 89 1012.5
20260505000358 48 20 5.0 11.0 0.09 0.13 0.13 88 1012.5
20260504235851 48 349 4.0 9.0 0.09 0.13 0.13 88 1012.6
20260504235345 48 42 4.0 9.0 0.10 0.12 0.12 89 1012.6
20260504234839 48 2 4.0 9.0 0.11 0.11 0.11 88 1012.6
20260504234333 48 8 3.0 9.0 0.09 0.09 0.09 88 1012.6
20260504233827 48 337 3.0 8.0 0.07 0.07 0.08 87 1012.8
20260504233321 49 32 4.0 9.0 0.06 0.06 0.06 87 1012.7
20260504232815 49 31 4.0 9.0 0.05 0.05 0.05 86 1012.8
20260504232311 49 26 3.0 7.0 0.05 0.05 0.05 86 1012.9
20260504231804 49 1 3.0 8.0 0.05 0.05 0.05 86 1012.9
20260504231258 49 24 3.0 8.0 0.05 0.05 0.05 85 1012.9
20260504230751 49 28 3.0 8.0 0.04 0.04 0.04 85 1012.8
20260504230245 50 29 4.0 8.0 0.04 0.04 0.04 84 1012.7
20260504225739 50 33 4.0 10.0 0.03 0.03 0.03 83 1012.7
20260504225234 50 36 6.0 12.0 0.02 0.02 0.02 82 1012.7
20260504224727 50 334 5.0 12.0 0.00 0.00 0.00 81 1012.7
20260504224221 51 355 5.0 9.0 0.00 0.00 0.00 80 1012.8